{"data":{"norad_id":52907,"intl_designator":"2022-068A","name":"YAOGAN-35 02A","alt_names":[],"object_type":"PAYLOAD","status":"ACTIVE","operator":null,"country":"PRC","launch_date":"2022-06-23","launch_site_code":"XICLF","launch_vehicle":null,"mission":null,"orbit_class":"UNKNOWN","rcs_meters":null,"size_class":null,"mass_kg":null,"dimensions":null,"purposes":[],"wikipedia_slug":null,"has_3d_model":false,"image_url":null,"decayed_at":null,"tle_current":{"epoch":"2026-05-25T01:46:33.738240Z","epoch_age_seconds":64681,"freshness":"FRESH","line1":"1 52907U 22068A   26145.07400160  .00007143  00000+0  29005-3 0  9990","line2":"2 52907  34.9913 284.1268 0010944 229.7101 130.2658 15.23827404218366","mean_motion":15.23827404,"eccentricity":0.0010944,"inclination_deg":34.9913,"raan_deg":284.1268,"arg_perigee_deg":229.7101,"mean_anomaly_deg":130.2658,"bstar":0.00029005,"rev_number":21836,"period_min":94.498891161823,"perigee_km":486.78756703247,"apogee_km":501.82997633754,"semimajor_km":6872.445771685,"source":"CELESTRAK","updated_at":"2026-05-25T13:37:57.956204Z"}}}